Location: The Saddle
(36.8333°N, 80.3417°W)
Time: 03:56:17
(UTC-04:00)

BlueWalker 3 - Visible Passes

Search period start: 08 May 2026 00:00
Search period end: 18 May 2026 00:00
Orbit: 448 x 458 km, 53.2° (Epoch: 7 May)

Date Brightness Start Highest point End Pass type
(mag) Time Alt. Az. Time Alt. Az. Time Alt. Az.
8 May 4.9 02:58:32 12° ENE 02:58:32 12° ENE 02:58:54 10° ENE visible
8 May 3.7 04:32:10 17° NW 04:33:04 19° NNW 04:35:40 10° NNE visible
9 May 3.6 03:56:36 23° NNW 03:56:36 23° NNW 03:59:09 10° NNE visible
10 May 4.2 03:20:58 21° N 03:20:58 21° N 03:22:34 10° NNE visible
11 May 4.9 02:45:18 14° NNE 02:45:18 14° NNE 02:45:56 10° NNE visible
12 May 4.6 03:43:11 11° NNW 03:43:48 11° NNW 03:44:54 10° N visible
13 May 4.7 03:07:25 13° NNW 03:07:25 13° NNW 03:08:40 10° N visible
14 May 5.0 02:31:35 13° N 02:31:35 13° N 02:32:14 10° NNE visible
15 May 5.3 01:55:41 10° NNE 01:55:41 10° NNE 01:55:42 10° NNE visible
17 May 4.8 05:33:35 10° N 05:35:23 13° NNE 05:37:11 10° NE visible
